GW1238 Weather Reports


time (UTC)temp
F
wind
direction
speed
knots
gust
knots
rain 1hr
in
rain 24hr
in
rain mn
in
humidity
%
barometer
mb
20260901232046 89 329 0.9 1.7 0.00 0.00 0.00 67 1020.9
20260901231543 90 9 0.9 0.9 0.00 0.00 0.00 66 1020.8
20260901231039 90 351 0.9 0.9 0.00 0.00 0.00 65 1020.7
20260901230539 91 55 0.0 0.9 0.00 0.00 0.00 64 1020.6
20260901230034 92 86 0.0 0.0 0.00 0.00 0.00 64 1020.5
20260901225529 92 356 0.9 0.9 0.00 0.00 0.00 62 1020.5
20260901225029 93 103 0.0 2.6 0.00 0.00 0.00 59 1020.4
20260901224525 93 113 0.9 1.7 0.00 0.00 0.00 60 1020.5
20260901224021 92 74 0.0 2.6 0.00 0.00 0.00 59 1020.5
20260901223516 93 88 1.7 2.6 0.00 0.00 0.00 60 1020.4
20260901223012 93 106 1.7 1.7 0.00 0.00 0.00 57 1020.5
20260901222508 93 137 1.7 2.6 0.00 0.00 0.00 55 1020.4
20260901222003 94 116 0.9 0.9 0.00 0.00 0.00 59 1020.3
20260901221500 94 128 0.9 0.9 0.00 0.00 0.00 53 1020.6
20260901221000 94 127 1.7 1.7 0.00 0.00 0.00 54 1020.3
20260901220459 94 117 0.9 0.9 0.00 0.00 0.00 58 1020.4
20260901215958 96 144 0.9 0.9 0.00 0.00 0.00 50 1020.2
20260901215456 96 141 0.0 0.9 0.00 0.00 0.00 54 1020.4
20260901214956 100 162 0.0 0.9 0.00 0.00 0.00 50 1020.5
20260901214454 97 160 0.0 0.0 0.00 0.00 0.00 49 1020.3
20260901213949 95 108 0.0 0.9 0.00 0.00 0.00 54 1020.4
20260901213444 94 106 0.9 0.9 0.00 0.00 0.00 57 1020.5
20260901212943 93 112 1.7 1.7 0.00 0.00 0.00 57 1020.7
20260901212439 98 161 0.0 0.0 0.00 0.00 0.00 49 1020.4
20260901211936 95 103 0.0 2.6 0.00 0.00 0.00 51 1020.6
20260901211431 94 107 0.9 1.7 0.00 0.00 0.00 52 1020.7
20260901210926 96 140 0.9 1.7 0.00 0.00 0.00 50 1020.5
20260901210423 93 125 0.9 3.5 0.00 0.00 0.00 56 1020.7
20260901205919 93 100 1.7 3.5 0.00 0.00 0.00 55 1020.5
20260901205418 93 119 1.7 1.7 0.00 0.00 0.00 59 1020.6
20260901204913 93 121 1.7 2.6 0.00 0.00 0.00 53 1020.6
20260901204410 93 137 0.9 1.7 0.00 0.00 0.00 57 1020.5
20260901203910 93 150 1.7 1.7 0.00 0.00 0.00 56 1020.9
20260901203404 92 124 1.7 1.7 0.00 0.00 0.00 57 1020.9
20260901202859 92 130 1.7 1.7 0.00 0.00 0.00 55 1020.8
20260901202354 93 126 0.9 2.6 0.00 0.00 0.00 57 1021.1
20260901201851 93 137 1.7 1.7 0.00 0.00 0.00 56 1021.2
20260901201350 93 117 1.7 1.7 0.00 0.00 0.00 57 1021.1
20260901200850 92 111 0.9 2.6 0.00 0.00 0.00 62 1021.2
20260901200345 92 104 3.5 3.5 0.00 0.00 0.00 57 1021.2
20260901195844 92 116 1.7 2.6 0.00 0.00 0.00 57 1021.1
20260901195337 92 127 0.9 1.7 0.00 0.00 0.00 61 1021.1
20260901194833 92 111 1.7 2.6 0.00 0.00 0.00 59 1021.2
20260901194332 91 117 1.7 2.6 0.00 0.00 0.00 63 1021.2
20260901193829 91 118 1.7 2.6 0.00 0.00 0.00 59 1021.4
20260901193328 91 123 1.7 2.6 0.00 0.00 0.00 62 1021.4
20260901192822 91 114 1.7 2.6 0.00 0.00 0.00 60 1021.5
20260901192318 91 127 2.6 2.6 0.00 0.00 0.00 65 1021.9
20260901191815 91 123 1.7 2.6 0.00 0.00 0.00 64 1021.7
20260901191309 91 119 1.7 2.6 0.00 0.00 0.00 67 1021.7
20260901190806 91 116 2.6 2.6 0.00 0.00 0.00 61 1021.8
20260901190305 91 115 2.6 2.6 0.00 0.00 0.00 60 1021.7
20260901185804 91 154 0.9 1.7 0.00 0.00 0.00 61 1021.9
20260901185305 91 142 2.6 2.6 0.00 0.00 0.00 62 1022.0
20260901184758 91 135 1.7 1.7 0.00 0.00 0.00 61 1022.1
20260901184254 91 135 1.7 1.7 0.00 0.00 0.00 61 1021.9
20260901183749 91 136 1.7 1.7 0.00 0.00 0.00 61 1022.1
20260901183249 91 144 1.7 2.6 0.00 0.00 0.00 61 1022.1
20260901182745 90 136 0.9 1.7 0.00 0.00 0.00 59 1022.2
20260901182244 91 96 0.9 2.6 0.00 0.00 0.00 58 1022.2
20260901181739 90 119 2.6 2.6 0.00 0.00 0.00 58 1022.3
20260901181233 90 117 2.6 3.5 0.00 0.00 0.00 60 1022.4
20260901180732 90 115 2.6 3.5 0.00 0.00 0.00 57 1022.3
20260901180232 90 100 3.5 3.5 0.00 0.00 0.00 60 1022.4
20260901175731 90 101 3.5 3.5 0.00 0.00 0.00 63 1022.3
20260901175226 89 121 1.7 2.6 0.00 0.00 0.00 68 1022.5
20260901174721 89 111 1.7 2.6 0.00 0.00 0.00 67 1022.7
20260901174217 89 116 1.7 2.6 0.00 0.00 0.00 67 1022.4
20260901173712 89 103 2.6 2.6 0.00 0.00 0.00 69 1022.9
20260901173207 88 111 2.6 2.6 0.00 0.00 0.00 67 1022.7
20260901172704 89 137 0.9 1.7 0.00 0.00 0.00 66 1022.9
20260901172202 89 136 0.9 1.7 0.00 0.00 0.00 67 1023.1
20260901171701 91 146 0.9 1.7 0.00 0.00 0.00 66 1023.1
20260901171201 92 170 0.9 0.9 0.00 0.00 0.00 63 1023.0
20260901170700 91 181 0.9 1.7 0.00 0.00 0.00 64 1023.1
20260901170154 89 173 0.9 1.7 0.00 0.00 0.00 66 1023.3
20260901165653 87 146 0.9 1.7 0.00 0.00 0.00 70 1023.4
20260901165149 87 139 1.7 1.7 0.00 0.00 0.00 70 1023.3
20260901164645 87 139 0.9 1.7 0.00 0.00 0.00 71 1023.5
20260901164140 87 131 0.9 0.9 0.00 0.00 0.00 71 1023.4
20260901163635 87 125 0.9 1.7 0.00 0.00 0.00 70 1023.7
20260901163134 86 93 1.7 1.7 0.00 0.00 0.00 72 1023.7
20260901162630 86 107 0.9 1.7 0.00 0.00 0.00 74 1023.8
20260901162129 86 115 1.7 1.7 0.00 0.00 0.00 74 1023.8
20260901161628 86 116 1.7 1.7 0.00 0.00 0.00 74 1023.7
20260901161128 86 112 0.9 1.7 0.00 0.00 0.00 73 1023.9
20260901160625 86 118 0.9 1.7 0.00 0.00 0.00 71 1023.9
20260901160125 85 118 0.9 1.7 0.00 0.00 0.00 73 1024.1
20260901155624 85 122 0.9 1.7 0.00 0.00 0.00 75 1024.1
20260901155119 85 125 0.9 1.7 0.00 0.00 0.00 75 1024.2
20260901154614 85 115 0.9 1.7 0.00 0.00 0.00 75 1024.1
20260901154109 85 120 0.0 0.9 0.00 0.00 0.00 74 1024.1
20260901153604 85 120 0.9 1.7 0.00 0.00 0.00 76 1024.2
20260901153103 85 126 0.0 0.9 0.00 0.00 0.00 75 1024.2
20260901152558 84 125 0.9 0.9 0.00 0.00 0.00 76 1024.3
20260901152056 84 125 0.9 1.7 0.00 0.00 0.00 78 1024.4
20260901151553 83 125 1.7 1.7 0.00 0.00 0.00 80 1024.3
20260901151052 83 109 0.9 1.7 0.00 0.00 0.00 79 1024.2
20260901150550 83 113 1.7 1.7 0.00 0.00 0.00 82 1024.4
20260901150049 82 105 1.7 1.7 0.00 0.00 0.00 82 1024.2
20260901145549 82 119 1.7 1.7 0.00 0.00 0.00 81 1024.3
20260901145048 82 123 1.7 2.6 0.00 0.00 0.00 80 1024.1
20260901144544 82 119 1.7 2.6 0.00 0.00 0.00 81 1024.2
20260901144038 82 110 1.7 1.7 0.00 0.00 0.00 83 1024.2
20260901143534 81 126 1.7 1.7 0.00 0.00 0.00 83 1024.2
20260901143031 81 125 1.7 1.7 0.00 0.00 0.00 83 1024.3
20260901142526 81 124 1.7 2.6 0.00 0.00 0.00 85 1024.1
20260901142021 81 116 1.7 1.7 0.00 0.00 0.00 84 1024.2
20260901141521 81 110 0.9 1.7 0.00 0.00 0.00 85 1024.3
20260901141015 81 116 0.9 1.7 0.00 0.00 0.00 86 1024.3
20260901140514 80 116 0.9 1.7 0.00 0.00 0.00 87 1024.3
20260901140008 80 124 1.7 1.7 0.00 0.00 0.00 87 1024.3
20260901135502 80 122 1.7 1.7 0.00 0.00 0.00 88 1024.3
20260901134958 80 126 1.7 1.7 0.00 0.00 0.00 88 1024.2
20260901134454 80 131 1.7 1.7 0.00 0.00 0.00 87 1024.3
20260901133953 80 140 0.9 1.7 0.00 0.00 0.00 88 1024.1
20260901133452 81 137 1.7 1.7 0.00 0.00 0.00 85 1024.1
20260901132951 83 147 0.9 0.9 0.00 0.00 0.00 80 1024.3
20260901132451 85 158 0.0 0.9 0.00 0.00 0.00 81 1024.2
20260901131950 82 161 0.9 0.9 0.00 0.00 0.00 83 1024.2
20260901131445 82 150 0.9 0.9 0.00 0.00 0.00 84 1024.3
20260901130941 82 160 0.9 1.7 0.00 0.00 0.00 84 1024.0
20260901130441 83 161 0.0 0.9 0.00 0.00 0.00 85 1024.2
20260901125938 81 175 0.9 0.9 0.00 0.00 0.00 86 1024.2
20260901125433 80 144 0.9 1.7 0.00 0.00 0.00 87 1024.1
20260901124932 81 144 0.9 0.9 0.00 0.00 0.00 85 1024.3
20260901124428 79 155 0.0 0.0 0.00 0.00 0.00 93 1024.1
20260901123922 77 94 0.0 0.0 0.00 0.00 0.00 94 1024.1
20260901123418 76 58 0.0 0.0 0.00 0.00 0.00 96 1024.1
20260901122915 76 350 0.9 0.9 0.00 0.00 0.00 96 1023.9
20260901122410 75 344 0.9 0.9 0.00 0.00 0.00 97 1024.0
20260901121909 74 344 0.9 1.7 0.00 0.00 0.00 97 1023.8
20260901121405 74 354 0.9 1.7 0.00 0.00 0.00 98 1023.8
20260901120901 74 336 0.9 1.7 0.00 0.00 0.00 98 1023.8
20260901120355 74 19 0.9 1.7 0.00 0.00 0.00 98 1023.6
20260901115850 73 345 0.0 0.9 0.00 0.00 0.00 99 1023.6
20260901115350 73 350 0.9 1.7 0.00 0.00 0.00 99 1023.7
20260901114849 73 340 0.9 1.7 0.00 0.00 0.00 99 1023.5
20260901114348 72 358 0.9 1.7 0.00 0.00 0.00 99 1023.5
20260901113846 72 350 0.9 1.7 0.00 0.00 0.00 99 1023.3
20260901113346 72 342 0.9 1.7 0.00 0.00 0.00 99 1023.2
20260901112842 71 340 1.7 1.7 0.00 0.00 0.00 99 1023.0
20260901112342 71 344 1.7 1.7 0.00 0.00 0.00 99 1023.2
20260901111836 71 334 1.7 1.7 0.00 0.00 0.00 99 1022.9
20260901111335 71 331 1.7 1.7 0.00 0.00 0.00 99 1022.9
20260901110834 72 333 1.7 2.6 0.00 0.00 0.00 99 1022.7
20260901110330 71 336 1.7 1.7 0.00 0.00 0.00 99 1022.9
20260901105826 72 331 1.7 1.7 0.00 0.00 0.00 99 1022.6
20260901105320 72 335 1.7 1.7 0.00 0.00 0.00 99 1022.5
20260901104816 72 344 1.7 1.7 0.00 0.00 0.00 99 1022.5
20260901104312 72 349 0.9 1.7 0.00 0.00 0.00 99 1022.6
20260901103807 72 4 1.7 1.7 0.00 0.00 0.00 99 1022.6
20260901103307 72 335 1.7 1.7 0.00 0.00 0.00 99 1022.5
20260901102802 72 341 1.7 1.7 0.00 0.00 0.00 99 1022.6
20260901102301 73 342 1.7 1.7 0.00 0.00 0.00 99 1022.5
20260901101757 72 321 0.9 1.7 0.00 0.00 0.00 99 1022.5
20260901101252 73 339 0.9 1.7 0.00 0.00 0.00 99 1022.4
20260901100751 72 338 1.7 1.7 0.00 0.00 0.00 99 1022.6
20260901100246 73 337 1.7 1.7 0.00 0.00 0.00 99 1022.5
20260901095744 73 334 0.9 1.7 0.00 0.00 0.00 99 1022.6
20260901095242 73 335 0.9 1.7 0.00 0.00 0.00 99 1022.5
20260901094736 73 344 1.7 1.7 0.00 0.00 0.00 99 1022.3
20260901094231 73 335 1.7 1.7 0.00 0.00 0.00 99 1022.5
20260901093726 73 338 1.7 1.7 0.00 0.00 0.00 99 1022.3
20260901093225 73 327 0.9 1.7 0.00 0.00 0.00 99 1022.4
20260901092721 73 9 0.9 0.9 0.00 0.00 0.00 99 1022.3
20260901092217 73 339 1.7 1.7 0.00 0.00 0.00 99 1022.2
20260901091713 73 341 0.9 1.7 0.00 0.00 0.00 99 1022.3
20260901091208 73 338 1.7 2.6 0.00 0.00 0.00 99 1022.2
20260901090702 73 335 1.7 2.6 0.00 0.00 0.00 98 1022.4
20260901090157 73 346 1.7 1.7 0.00 0.00 0.00 98 1022.1
20260901085654 73 341 1.7 1.7 0.00 0.00 0.00 98 1022.2
20260901085149 73 2 0.9 1.7 0.00 0.00 0.00 98 1021.9
20260901084645 73 341 1.7 1.7 0.00 0.00 0.00 98 1022.1
20260901084141 73 342 1.7 1.7 0.00 0.00 0.00 98 1021.9
20260901083641 73 340 1.7 1.7 0.00 0.00 0.00 98 1022.1
20260901083140 73 337 1.7 1.7 0.00 0.00 0.00 98 1022.0
20260901082640 73 337 1.7 1.7 0.00 0.00 0.00 97 1022.0
20260901082136 73 328 1.7 1.7 0.00 0.00 0.00 97 1022.1
20260901081631 73 312 1.7 1.7 0.00 0.00 0.00 97 1022.0
20260901081125 73 321 1.7 1.7 0.00 0.00 0.00 97 1022.0
20260901080619 73 348 1.7 1.7 0.00 0.00 0.00 97 1022.2
20260901080118 73 342 1.7 1.7 0.00 0.00 0.00 97 1021.9
20260901075614 74 335 1.7 1.7 0.00 0.00 0.00 96 1021.9
20260901075114 73 341 1.7 1.7 0.00 0.00 0.00 96 1021.9
20260901074613 73 344 1.7 1.7 0.00 0.00 0.00 96 1021.9
20260901074108 74 339 1.7 1.7 0.00 0.00 0.00 96 1021.8
20260901073605 74 332 1.7 1.7 0.00 0.00 0.00 96 1021.8
20260901073105 74 329 1.7 1.7 0.00 0.00 0.00 97 1021.9
20260901072600 74 313 0.9 1.7 0.00 0.00 0.00 97 1021.9
20260901072055 74 331 1.7 2.6 0.00 0.00 0.00 96 1022.0
20260901071555 74 341 1.7 1.7 0.00 0.00 0.00 97 1021.9
20260901071054 74 335 1.7 1.7 0.00 0.00 0.00 97 1021.9
20260901070549 74 332 1.7 2.6 0.00 0.00 0.00 97 1022.0
20260901070044 74 356 0.9 1.7 0.00 0.00 0.00 97 1022.1
20260901065538 74 331 0.9 1.7 0.00 0.00 0.00 97 1022.0
20260901065033 74 339 1.7 2.6 0.00 0.00 0.00 96 1022.0
20260901064530 74 328 0.9 1.7 0.00 0.00 0.00 97 1022.1
20260901064026 74 355 0.9 1.7 0.00 0.00 0.00 96 1022.1
20260901063523 75 339 1.7 1.7 0.00 0.00 0.00 96 1022.2
20260901063019 74 338 1.7 1.7 0.00 0.00 0.00 96 1022.3
20260901062514 74 334 1.7 1.7 0.00 0.00 0.00 96 1022.1
20260901062011 74 335 1.7 1.7 0.00 0.00 0.00 95 1022.5
20260901061507 74 335 1.7 2.6 0.00 0.00 0.00 95 1022.4
20260901061007 74 341 1.7 1.7 0.00 0.00 0.00 95 1022.3
20260901060501 75 331 1.7 1.7 0.00 0.00 0.00 95 1022.2
20260901060001 74 332 1.7 1.7 0.00 0.00 0.00 95 1022.3
20260901055457 75 345 0.9 1.7 0.00 0.00 0.00 95 1022.5
20260901054954 74 336 1.7 1.7 0.00 0.00 0.00 94 1022.2
20260901054451 74 338 1.7 1.7 0.00 0.00 0.00 94 1022.3
20260901053947 75 336 1.7 1.7 0.00 0.00 0.00 94 1022.3
20260901053442 75 340 1.7 1.7 0.00 0.00 0.00 94 1022.2
20260901052937 75 330 1.7 1.7 0.00 0.00 0.00 94 1022.2
20260901052433 75 355 1.7 1.7 0.00 0.00 0.00 94 1022.5
20260901051931 75 341 1.7 1.7 0.00 0.00 0.00 93 1022.4
20260901051427 75 336 1.7 1.7 0.00 0.00 0.00 93 1022.5
20260901050927 75 340 1.7 2.6 0.00 0.00 0.00 93 1022.5
20260901050423 75 346 1.7 1.7 0.00 0.00 0.00 93 1022.2
20260901045922 75 339 1.7 2.6 0.00 0.00 0.00 92 1022.3
20260901045418 75 347 1.7 1.7 0.00 0.00 0.00 92 1022.3
20260901044912 76 329 1.7 1.7 0.00 0.00 0.00 92 1022.5
20260901044409 76 335 1.7 1.7 0.00 0.00 0.00 92 1022.3
20260901043904 76 336 1.7 1.7 0.00 0.00 0.00 92 1022.3
20260901043355 76 337 1.7 1.7 0.00 0.00 0.00 92 1022.3
20260901042854 76 336 1.7 1.7 0.00 0.00 0.00 91 1022.1
20260901042349 76 337 1.7 1.7 0.00 0.00 0.00 91 1022.1
20260901041844 76 334 0.9 1.7 0.00 0.00 0.00 91 1022.2
20260901041340 76 334 1.7 1.7 0.00 0.00 0.00 90 1022.1
20260901040839 76 335 1.7 1.7 0.00 0.00 0.00 90 1022.3
20260901040339 76 338 1.7 1.7 0.00 0.00 0.00 90 1022.2
20260901035838 76 342 1.7 1.7 0.00 0.00 0.00 89 1022.1
20260901035337 76 339 1.7 1.7 0.00 0.00 0.00 89 1022.2
20260901034836 76 336 1.7 1.7 0.00 0.00 0.00 89 1022.2
20260901034331 76 337 1.7 1.7 0.00 0.00 0.00 88 1022.1
20260901033825 76 335 1.7 1.7 0.00 0.00 0.00 88 1022.1
20260901033324 76 334 1.7 1.7 0.00 0.00 0.00 88 1022.1
20260901032823 76 333 1.7 1.7 0.00 0.00 0.00 87 1022.1
20260901032322 77 338 1.7 1.7 0.00 0.00 0.00 87 1022.1
20260901031817 77 333 1.7 1.7 0.00 0.00 0.00 86 1022.1
20260901031313 77 332 1.7 1.7 0.00 0.00 0.00 85 1022.3
20260901030813 77 334 1.7 3.5 0.00 0.00 0.00 85 1022.1
20260901030308 77 341 1.7 2.6 0.00 0.00 0.00 86 1022.4
20260901025807 77 334 1.7 1.7 0.00 0.00 0.00 84 1022.2
20260901025305 77 340 1.7 2.6 0.00 0.00 0.00 84 1022.3
20260901024757 77 333 1.7 1.7 0.00 0.00 0.00 84 1022.3
20260901024256 78 343 0.9 1.7 0.00 0.00 0.00 84 1022.3
20260901023754 78 335 1.7 1.7 0.00 0.00 0.00 83 1022.2
20260901023250 78 341 0.9 2.6 0.00 0.00 0.00 84 1022.2
20260901022745 78 338 0.9 1.7 0.00 0.00 0.00 82 1022.1
20260901022241 78 335 1.7 1.7 0.00 0.00 0.00 82 1022.3
20260901021736 78 336 1.7 1.7 0.00 0.00 0.00 81 1022.2
20260901021231 78 2 1.7 1.7 0.00 0.00 0.00 81 1022.0
20260901020727 78 333 1.7 1.7 0.00 0.00 0.00 80 1021.9
20260901020222 78 322 0.9 1.7 0.00 0.00 0.00 81 1022.1
20260901015717 78 334 1.7 2.6 0.00 0.00 0.00 80 1021.8
20260901015213 78 337 1.7 1.7 0.00 0.00 0.00 80 1021.8
20260901014712 79 359 0.9 1.7 0.00 0.00 0.00 79 1021.8
20260901014208 79 348 1.7 1.7 0.00 0.00 0.00 79 1021.7
20260901013703 79 327 1.7 2.6 0.00 0.00 0.00 79 1021.6
20260901013159 79 353 1.7 1.7 0.00 0.00 0.00 80 1021.6
20260901012654 79 335 1.7 3.5 0.00 0.00 0.00 78 1021.6
20260901012149 79 335 1.7 2.6 0.00 0.00 0.00 77 1021.5
20260901011645 79 335 1.7 2.6 0.00 0.00 0.00 77 1021.4
20260901011144 79 342 1.7 1.7 0.00 0.00 0.00 77 1021.6
20260901010639 79 340 1.7 1.7 0.00 0.00 0.00 77 1021.6
20260901010138 79 343 1.7 1.7 0.00 0.00 0.00 77 1021.3
20260901005638 80 348 0.9 1.7 0.00 0.00 0.00 76 1021.5
20260901005133 80 333 1.7 1.7 0.00 0.00 0.00 77 1021.2
20260901004632 80 337 1.7 1.7 0.00 0.00 0.00 78 1021.1
20260901004128 81 344 1.7 1.7 0.00 0.00 0.00 77 1021.2
20260901003622 80 332 1.7 1.7 0.00 0.00 0.00 77 1021.0
20260901003121 81 329 1.7 2.6 0.00 0.00 0.00 76 1021.0
20260901002615 81 335 1.7 2.6 0.00 0.00 0.00 77 1020.8
20260901002110 82 331 1.7 2.6 0.00 0.00 0.00 76 1020.9
20260901001605 82 335 1.7 2.6 0.00 0.00 0.00 76 1020.8
20260901001100 82 341 1.7 1.7 0.00 0.00 0.00 75 1021.0
20260901000555 83 335 1.7 1.7 0.00 0.00 0.00 75 1020.8
20260901000052 83 333 1.7 2.6 0.00 0.00 0.00 74 1020.8
20260831235545 83 335 1.7 1.7 0.00 0.00 0.00 74 1021.1
20260831235041 83 350 1.7 1.7 0.00 0.00 0.00 74 1021.0
20260831234540 84 338 1.7 1.7 0.00 0.00 0.00 72 1020.9
20260831234036 84 341 0.9 2.6 0.00 0.00 0.00 72 1020.9
20260831233531 85 337 1.7 1.7 0.00 0.00 0.00 72 1020.8
20260831233027 85 340 1.7 1.7 0.00 0.00 0.00 69 1020.9
20260831232521 85 339 1.7 1.7 0.00 0.00 0.00 67 1021.1